Find OneWeb SL0243

NORAD ID: 48774 Int'l Des: 2021-045 Owner: ONEWEBN Country: UK Constellation: oneweb operational
又名: ONEWEB-0243 spacetrack, celestrak
LEOCIRCULARPOLARONEWEB_TYPE

当前视图

正在加载3D地球...

About OneWeb SL0243

OneWeb SL0243 (NORAD 48774) is a oneweb constellation satellite launched May 28, 2021 by ONEWEBN of UK. It operates in LEO, CIRCULAR, POLAR, ONEWEB_TYPE orbit with a mass of 148.00 kg.

即将过境

Passes for default location (London). Set your location on the main map for personalized predictions.

高度历史

Loading altitude history...

两行轨道根数

1 48774U 21045H 26246.48002650 -.00000089 00000-0 -27058-3 0 9991
2 48774 87.8960 243.6060 0002564 85.9968 274.1455 13.15549142254658
Epoch: Sep 3, 2026 • Age: 21 hours

当前状态

高度 1206.2 km
远地点 / 近地点 N/A
速度 7.25 km/s
星下点 -6.80°S, 47.98°W
发射日期 May 28, 2021
运行时间 5.2 years
类型 internet

技术详情

分类 Payload
质量 148.00 kg
干质量 140.00 kg
总质量 148.00 kg
长度 1.30 m
直径 1.00 m
跨度 5.00 m
形状 Trapezoid+2 pan
制造商 ONEWUS
平台类型 ARROW
阶段状态 In Orbit
所有者/国家 ONEWEBN/UK

Most Searched